Regional Weather Roundup
Issued by NWS

Home | Current Version | Previous Version | Graphics & Text | Print | Product List | Glossary On
Versions: 1 2 3 4 5 6 7 8 9 10 11 12 13 14 15 16 17 18 19 20 21 22 23 24 25 26 27 28 29 30 31 32 33 34 35 36 37 38 39 40 41 42 43 44 45 46 47 48 49 50
000
ASUS44 KMEG 081600
RWRTN
TENNESSEE HOURLY STATE WEATHER ROUNDUP
NATIONAL WEATHER SERVICE MEMPHIS TN
1000 AM CST MON FEB 08 2016

TNZ002-004-019-021-049-052-054-088>092-081700-
WEST TENNESSEE

CITY           SKY/WX    TMP DP  RH WIND       PRES   REMARKS
MEMPHIS INTL   MOSUNNY   45  22  40 NW20G32   29.94S
NWS MEMPHIS      N/A     43 N/A N/A MISG        N/A
JACKSON        CLOUDY    42  24  49 W15G23    29.89R
DYERSBURG      CLOUDY    39  23  52 W21G26    29.91R WCI  29
UNION CITY     CLOUDY    39  27  60 W12       29.85R WCI  32
PARIS          CLOUDY    39  23  52 W13       29.84R WCI  32
$$

TNZ008-025-027-028-033-062-065-066-081700-
NORTH MIDDLE TENNESSEE

CITY           SKY/WX    TMP DP  RH WIND       PRES   REMARKS
NASHVILLE      PTSUNNY   44  22  41 NW14G23   29.81R
CLARKSVILLE    CLOUDY    41  26  55 W13G23    29.80S
COOKEVILLE     MOSUNNY   45  28  53 NW10      29.75S
CROSSVILLE     MOSUNNY   42  24  49 W16G25    29.73R
$$

TNZ061-075-076-078-094-096-097-081700-
SOUTH MIDDLE TENNESSEE

CITY           SKY/WX    TMP DP  RH WIND       PRES   REMARKS
TULLAHOMA      SUNNY     43  21  42 W20       29.80S
WINCHESTER     SUNNY     43  25  49 W12       29.81R
MCMINNVILLE    SUNNY     43  25  49 W16       29.78S
COLUMBIA       CLOUDY    43  25  49 W12       29.82S
SHELBYVILLE    MOSUNNY   45  27  49 W17       29.82S
$$

TNZ017-018-042-046-047-081700-
NORTHEAST TENNESSEE

CITY           SKY/WX    TMP DP  RH WIND       PRES   REMARKS
TRI CITIES     LGT RAIN  37  32  82 W13       29.74R WCI  29
$$

TNZ012-013-036-069-073-074-081700-
CENTRAL EAST TENNESSEE

CITY           SKY/WX    TMP DP  RH WIND       PRES   REMARKS
KNOXVILLE      MOSUNNY   48  28  46 SW15      29.73F
OAK RIDGE      MOSUNNY   49  29  46 SW8       29.74F
GATLINBURG     SUNNY     46  25  42 S10       29.72F
$$

TNZ083-085-099-081700-
SOUTHEAST TENNESSEE

CITY           SKY/WX    TMP DP  RH WIND       PRES   REMARKS
CHATTANOOGA    MOSUNNY   49  24  37 W14G21    29.78F
$$

SKY/WX REPORTED AS FAIR MEANS FEW OR NO CLOUDS BELOW
12 THOUSAND FEET.




USA.gov is the U.S. government's official web portal to all federal, state and local government web resources and services.